INSAT-3DR

Last updated on Mon Sep 07 2026 00:02:40 GMT+0000 (Coordinated Universal Time)

1 41752U 16054A 26249.60646839 -.00000093 00000+0 00000+0 0 9991 2 41752 0.1040 90.8559 0011689 173.9166 13.2697 1.00271143 36635
UTC large
Height (km)
Speed (km/s)
/
Latitude / Longitude
Inclination (degrees)
Orbital Period (minutes)
Azimuth
Elevation
Range (km)
Doppler Factor

Next 0 passes for location: London (51.5072 / 0.1276)

No passes found over London.
INSAT-3DR